GW6424 Weather Reports


time (UTC)temp
C
wind
direction
speed
KPH
gust
KPH
rain 1hr
cm
rain 24hr
cm
rain mn
cm
humidity
%
barometer
mb
20260508214236 10 302 0.0 0.0 0.00 0.00 0.00 94 1030.5
20260508213736 10 302 0.0 0.0 0.00 0.00 0.00 94 1030.5
20260508213234 10 302 0.0 0.0 0.00 0.00 0.00 94 1030.4
20260508212736 10 302 0.0 0.0 0.00 0.00 0.00 94 1030.5
20260508212235 10 302 0.0 0.0 0.00 0.00 0.00 94 1030.5
20260508211736 10 302 0.0 0.0 0.00 0.00 0.00 94 1030.4
20260508211522 10 302 0.0 0.0 0.00 0.00 0.00 94 1030.3
20260508210737 10 302 0.0 0.0 0.00 0.00 0.00 94 1030.3
20260508210514 10 302 0.0 0.0 0.00 0.00 0.00 94 1030.3
20260508205734 10 302 0.0 0.0 0.00 0.00 0.00 94 1030.2
20260508205240 10 302 0.0 0.0 0.00 0.00 0.00 94 1030.2
20260508204736 10 302 0.0 0.0 0.00 0.00 0.00 94 1030.2
20260508204538 10 302 0.0 0.0 0.00 0.00 0.00 93 1030.0
20260508204533 10 302 0.0 0.0 0.00 0.00 0.00 93 1030.1
20260508203235 10 302 0.0 0.0 0.00 0.00 0.00 93 1029.9
20260508202735 10 302 0.0 0.0 0.00 0.00 0.00 93 1029.8
20260508202233 10 302 0.0 0.0 0.00 0.00 0.00 93 1029.8
20260508201734 10 302 0.0 0.0 0.00 0.00 0.00 92 1029.8
20260508201236 10 302 0.0 0.0 0.00 0.00 0.00 92 1029.8
20260508201020 10 302 0.0 0.0 0.00 0.00 0.00 92 1029.8
20260508200234 10 302 0.0 0.0 0.00 0.00 0.00 92 1029.8
20260508195733 10 302 0.0 0.0 0.00 0.00 0.00 92 1029.8
20260508195235 10 302 0.0 0.0 0.00 0.00 0.00 92 1029.7
20260508194734 10 302 0.0 0.0 0.00 0.00 0.00 91 1029.7
20260508194235 10 302 0.0 0.0 0.00 0.00 0.00 91 1029.6
20260508193734 10 302 0.0 0.0 0.00 0.00 0.00 91 1029.6
20260508193234 10 302 0.0 1.6 0.00 0.00 0.00 91 1029.6
20260508192738 10 302 0.0 1.6 0.00 0.00 0.00 91 1029.7
20260508192233 10 302 0.0 0.0 0.00 0.00 0.00 91 1029.7
20260508192019 10 302 0.0 0.0 0.00 0.00 0.00 91 1029.6
20260508191235 10 302 0.0 0.0 0.00 0.00 0.00 91 1029.6
20260508190732 10 302 0.0 0.0 0.00 0.00 0.00 91 1029.6
20260508190233 10 302 0.0 0.0 0.00 0.00 0.00 90 1029.5
20260508185733 10 305 0.0 1.6 0.00 0.00 0.00 91 1029.5
20260508185515 10 305 0.0 1.6 0.00 0.00 0.00 91 1029.5
20260508185016 10 292 0.0 0.0 0.00 0.00 0.00 90 1029.5
20260508184234 10 292 0.0 1.6 0.00 0.00 0.00 91 1029.5
20260508183733 10 298 0.0 1.6 0.00 0.00 0.00 90 1029.5
20260508183233 10 328 0.0 0.0 0.00 0.00 0.00 91 1029.5
20260508182732 10 328 0.0 0.0 0.00 0.00 0.00 91 1029.5
20260508182232 10 328 0.0 0.0 0.00 0.00 0.00 91 1029.5
20260508181732 10 328 0.0 0.0 0.00 0.00 0.00 90 1029.5
20260508181236 10 328 0.0 0.0 0.00 0.00 0.00 90 1029.6
20260508180733 10 328 0.0 0.0 0.00 0.00 0.00 90 1029.6
20260508180233 10 328 0.0 0.0 0.00 0.00 0.00 90 1029.6
20260508175737 10 328 0.0 0.0 0.00 0.00 0.00 90 1029.7
20260508175236 10 328 0.0 0.0 0.00 0.00 0.00 90 1029.6
20260508174737 10 328 0.0 0.0 0.00 0.00 0.00 90 1029.6
20260508174235 10 328 0.0 0.0 0.00 0.00 0.00 90 1029.6
20260508173735 10 328 0.0 0.0 0.00 0.00 0.00 90 1029.6
20260508173236 10 328 0.0 0.0 0.00 0.00 0.00 90 1029.7
20260508172734 10 328 0.0 0.0 0.00 0.00 0.00 90 1029.7
20260508172513 10 328 0.0 0.0 0.00 0.00 0.00 90 1029.7
20260508171735 10 328 0.0 0.0 0.00 0.00 0.00 90 1029.8
20260508171514 10 328 0.0 0.0 0.00 0.00 0.00 90 1029.8
20260508171023 10 328 0.0 0.0 0.00 0.00 0.00 90 1029.8
20260508170518 10 328 0.0 0.0 0.00 0.00 0.00 90 1029.8
20260508165810 10 328 0.0 0.0 0.00 0.00 0.00 90 1029.9
20260508165754 10 328 0.0 0.0 0.00 0.00 0.00 90 1029.8
20260508164735 10 328 0.0 0.0 0.00 0.00 0.00 90 1029.9
20260508164237 10 328 0.0 0.0 0.00 0.00 0.00 90 1030.0
20260508163734 10 328 0.0 0.0 0.00 0.00 0.00 91 1030.0
20260508163240 10 328 0.0 0.0 0.00 0.00 0.00 91 1030.0
20260508162737 10 328 0.0 0.0 0.00 0.00 0.00 91 1030.0
20260508162235 10 328 0.0 0.0 0.00 0.00 0.00 91 1030.1
20260508161736 10 328 0.0 1.6 0.00 0.00 0.00 91 1030.1
20260508161538 10 330 0.0 0.0 0.00 0.00 0.00 91 1030.1
20260508161533 10 328 0.0 1.6 0.00 0.00 0.00 91 1030.0
20260508160234 10 330 0.0 0.0 0.00 0.00 0.00 91 1030.0
20260508155735 10 330 0.0 0.0 0.00 0.00 0.00 91 1030.0
20260508155512 10 330 0.0 0.0 0.00 0.00 0.00 91 1030.0
20260508154734 10 330 0.0 0.0 0.00 0.00 0.00 91 1030.0
20260508154512 10 330 0.0 1.6 0.00 0.00 0.00 91 1030.1
20260508153733 10 330 0.0 1.6 0.00 0.00 0.00 91 1030.1
20260508153234 10 257 0.0 0.0 0.00 0.00 0.00 91 1030.2
20260508152735 10 257 0.0 0.0 0.00 0.00 0.00 91 1030.2
20260508152236 10 257 0.0 0.0 0.00 0.00 0.00 91 1030.2
20260508151733 10 257 0.0 0.0 0.00 0.00 0.00 91 1030.3
20260508151208 10 18 0.0 0.0 0.00 0.00 0.00 91 1030.3
20260508150708 10 18 0.0 0.0 0.00 0.00 0.00 91 1030.3
20260508150208 -17 0.0 0.0 0.00 0.00 0.00
20260508145944 -17 0.0 0.0 0.00 0.00 0.00
20260508145209 -17 0.0 0.0 0.00 0.00 0.00
20260508145009 -17 0.0 0.0 0.00 0.00 0.00
20260508144920 10 18 0.0 0.0 0.00 0.00 0.00 92 1030.1
20260508143209 10 18 0.0 0.0 0.00 0.00 0.00 92 1030.0
20260508142745 10 18 0.0 0.0 0.00 0.00 0.00 93 1030.1
20260508142730 10 18 0.0 0.0 0.00 0.00 0.00 92 1030.1
20260508141721 10 18 0.0 0.0 0.00 0.00 0.00 93 1030.2
20260508141238 10 18 0.0 0.0 0.00 0.00 0.00 93 1030.2
20260508140446 10 18 0.0 0.0 0.00 0.00 0.00 93 1030.2
20260508135707 10 18 0.0 0.0 0.00 0.00 0.00 93 1030.2
20260508135208 9 18 0.0 0.0 0.00 0.00 0.00 93 1030.3
20260508134710 9 18 0.0 0.0 0.00 0.00 0.00 93 1030.4
20260508134208 9 18 0.0 0.0 0.00 0.00 0.00 92 1030.4
20260508133709 9 18 0.0 0.0 0.00 0.00 0.00 92 1030.5
20260508133208 10 18 0.0 0.0 0.00 0.00 0.00 92 1030.4
20260508132709 10 18 0.0 0.0 0.00 0.00 0.00 92 1030.5
20260508132208 10 18 0.0 0.0 0.00 0.00 0.00 92 1030.5
20260508131706 10 18 0.0 0.0 0.00 0.00 0.00 92 1030.6
20260508131207 10 18 0.0 0.0 0.00 0.00 0.00 91 1030.6
20260508130708 10 18 0.0 0.0 0.00 0.00 0.00 92 1030.7
20260508130210 10 18 0.0 0.0 0.00 0.00 0.00 91 1030.7
20260508125956 10 18 0.0 0.0 0.00 0.00 0.00 91 1030.7
20260508125227 10 18 0.0 0.0 0.00 0.00 0.00 91 1030.7
20260508124215 11 18 0.0 1.6 0.00 0.00 0.00 91 1030.7
20260508123722 11 18 0.0 1.6 0.00 0.00 0.00 91 1030.7
20260508123209 11 279 0.0 0.0 0.00 0.00 0.00 92 1030.8
20260508122708 11 279 0.0 0.0 0.00 0.00 0.00 92 1030.9
20260508122207 10 279 0.0 1.6 0.00 0.00 0.00 93 1030.9
20260508121706 10 279 0.0 1.6 0.00 0.00 0.00 93 1031.0
20260508121208 11 345 0.0 1.6 0.00 0.00 0.00 93 1031.0
20260508120708 11 42 0.0 0.0 0.00 0.00 0.00 94 1031.0
20260508120443 11 42 0.0 0.0 0.00 0.00 0.00 94 1030.9
20260508115707 11 42 0.0 0.0 0.00 0.00 0.00 94 1030.9
20260508115207 11 42 0.0 0.0 0.00 0.00 0.00 94 1030.9
20260508114707 11 42 0.0 0.0 0.00 0.00 0.00 94 1030.9
20260508114208 11 42 0.0 0.0 0.00 0.00 0.00 94 1030.9
20260508113949 11 42 0.0 0.0 0.00 0.00 0.00 94 1030.9
20260508113206 11 42 0.0 0.0 0.00 0.00 0.00 94 1030.9
20260508112707 11 42 0.0 0.0 0.00 0.00 0.00 94 1030.9
20260508112207 11 42 0.0 0.0 0.00 0.00 0.00 94 1030.8
20260508111949 11 42 0.0 0.0 0.00 0.00 0.00 93 1030.8
20260508111206 11 42 0.0 0.0 0.00 0.00 0.00 93 1030.8
20260508110951 11 42 0.0 0.0 0.00 0.00 0.00 93 1030.8
20260508110227 11 42 0.0 0.0 0.00 0.00 0.00 93 1030.8
20260508110218 11 42 0.0 0.0 0.00 0.00 0.00 93 1030.8
20260508105206 11 42 0.0 0.0 0.00 0.00 0.00 93 1030.8
20260508104707 11 42 0.0 0.0 0.00 0.00 0.00 93 1030.8
20260508104207 11 42 0.0 1.6 0.00 0.00 0.00 93 1030.7
20260508103746 11 42 0.0 1.6 0.00 0.00 0.00 93 1030.7
20260508102944 11 229 0.0 0.0 0.00 0.00 0.00 93 1030.7
20260508102207 11 229 0.0 0.0 0.00 0.00 0.00 92 1030.7
20260508101719 11 229 0.0 0.0 0.00 0.00 0.00 92 1030.7
20260508101443 11 229 0.0 0.0 0.00 0.00 0.00 92 1030.6
20260508100707 11 229 0.0 0.0 0.00 0.00 0.00 92 1030.6
20260508100206 11 229 0.0 0.0 0.00 0.00 0.00 92 1030.7
20260508095706 11 229 0.0 0.0 0.00 0.00 0.00 92 1030.7
20260508095207 11 229 0.0 0.0 0.00 0.00 0.00 92 1030.7
20260508094707 11 229 0.0 0.0 0.00 0.00 0.00 92 1030.7
20260508094133 11 229 0.0 0.0 0.00 0.00 0.00 92 1030.7
20260508093634 11 229 0.0 0.0 0.00 0.00 0.00 92 1030.6
20260508093133 11 229 0.0 0.0 0.00 0.00 0.00 92 1030.5
20260508092633 11 229 0.0 1.6 0.00 0.00 0.00 92 1030.5
20260508092134 11 229 0.0 1.6 0.00 0.00 0.00 92 1030.5
20260508091633 11 355 0.0 0.0 0.00 0.00 0.00 92 1030.5
20260508091134 11 355 0.0 0.0 0.00 0.00 0.00 92 1030.4
20260508090633 11 355 0.0 0.0 0.00 0.00 0.00 92 1030.3
20260508090133 11 355 0.0 0.0 0.00 0.00 0.00 92 1030.3
20260508085633 11 355 0.0 1.6 0.00 0.00 0.00 92 1030.2
20260508085133 11 355 0.0 1.6 0.00 0.00 0.00 92 1030.2
20260508084640 11 340 0.0 0.0 0.00 0.00 0.00 92 1030.2
20260508084132 11 340 0.0 0.0 0.00 0.00 0.00 92 1030.2
20260508083913 11 340 0.0 0.0 0.00 0.00 0.00 92 1030.2
20260508083135 11 340 0.0 0.0 0.00 0.00 0.00 91 1029.9
20260508082634 11 340 0.0 0.0 0.00 0.00 0.00 91 1029.9
20260508082417 11 340 0.0 0.0 0.00 0.00 0.00 91 1029.9
20260508081633 11 340 0.0 1.6 0.00 0.00 0.00 91 1029.9
20260508081133 11 340 0.0 1.6 0.00 0.00 0.00 91 1029.9
20260508080634 11 42 0.0 0.0 0.00 0.00 0.00 91 1029.9
20260508080420 11 42 0.0 0.0 0.00 0.00 0.00 90 1029.9
20260508075922 12 42 0.0 0.0 0.00 0.00 0.00 89 1030.0
20260508075134 12 42 0.0 1.6 0.00 0.00 0.00 89 1030.1
20260508074633 12 42 0.0 1.6 0.00 0.00 0.00 88 1030.1
20260508074135 12 105 0.0 1.6 0.00 0.00 0.00 87 1029.9
20260508073919 12 300 0.0 1.6 0.00 0.00 0.00 87 1029.8
20260508073134 12 130 0.0 0.0 0.00 0.00 0.00 87 1029.8
20260508072633 12 130 0.0 0.0 0.00 0.00 0.00 87 1029.8
20260508072134 12 130 0.0 0.0 0.00 0.00 0.00 87 1029.9
20260508071923 12 181 0.0 0.0 0.00 0.00 0.00 87 1029.9
20260508071421 12 181 0.0 0.0 0.00 0.00 0.00 87 1030.0
20260508070632 12 181 0.0 0.0 0.00 0.00 0.00 87 1029.9
20260508070133 12 181 0.0 0.0 0.00 0.00 0.00 87 1029.9
20260508065637 12 181 0.0 0.0 0.00 0.00 0.00 87 1029.9
20260508065136 12 181 0.0 0.0 0.00 0.00 0.00 87 1029.9
20260508064710 12 181 0.0 0.0 0.00 0.00 0.00 87 1029.9
20260508064653 12 181 0.0 0.0 0.00 0.00 0.00 87 1030.0
20260508063636 12 181 0.0 0.0 0.00 0.00 0.00 88 1029.9
20260508063135 12 181 0.0 0.0 0.00 0.00 0.00 88 1029.9
20260508062635 12 181 0.0 0.0 0.00 0.00 0.00 87 1030.1
20260508062417 12 181 0.0 0.0 0.00 0.00 0.00 87 1030.1
20260508061637 12 181 0.0 0.0 0.00 0.00 0.00 87 1030.1
20260508061137 13 181 0.0 1.6 0.00 0.00 0.00 87 1030.1
20260508060635 12 181 0.0 1.6 0.00 0.00 0.00 88 1030.2
20260508060134 12 120 0.0 1.6 0.00 0.00 0.00 88 1030.2
20260508055634 12 90 0.0 1.6 0.00 0.00 0.00 88 1030.3
20260508055138 12 167 0.0 1.6 0.00 0.00 0.00 86 1030.3
20260508054634 13 333 0.0 0.0 0.00 0.00 0.00 85 1030.2
20260508054142 12 333 0.0 0.0 0.00 0.00 0.00 85 1030.3
20260508053632 13 53 0.0 0.0 0.00 0.00 0.00 85 1030.1
20260508053232 12 321 0.0 0.0 0.00 0.00 0.00 87 1030.3
20260508052734 12 321 0.0 0.0 0.00 0.00 0.00 87 1030.3
20260508052233 12 296 0.0 0.0 0.00 0.00 0.00 85 1030.4
20260508052221 -17 0.0 0.0 0.00 0.00 0.00
20260508051246 12 114 0.0 0.0 0.00 0.00 0.00 85 1030.4
20260508050720 12 114 0.0 0.0 0.00 0.00 0.00 85 1030.4
20260508050208 12 114 0.0 0.0 0.00 0.00 0.00 85 1030.4
20260508045709 12 114 0.0 0.0 0.00 0.00 0.00 85 1030.5
20260508045445 12 114 0.0 1.6 0.00 0.00 0.00 86 1030.4
20260508044946 12 114 0.0 1.6 0.00 0.00 0.00 86 1030.4
20260508044207 12 113 0.0 1.6 0.00 0.00 0.00 85 1030.4
20260508043708 12 312 0.0 3.2 0.00 0.00 0.00 84 1030.4
20260508043454 12 329 0.0 3.2 0.00 0.00 0.00 84 1030.5
20260508042708 13 140 0.0 0.0 0.00 0.00 0.00 85 1030.4
20260508042209 12 140 0.0 1.6 0.00 0.00 0.00 85 1030.4
20260508041707 12 140 0.0 1.6 0.00 0.00 0.00 84 1030.5
20260508041209 13 341 0.0 1.6 0.00 0.00 0.00 83 1030.5
20260508040957 13 111 0.0 1.6 0.00 0.00 0.00 83 1030.6
20260508040208 13 345 0.0 0.0 0.00 0.00 0.00 82 1030.6
20260508035707 12 345 0.0 0.0 0.00 0.00 0.00 83 1030.6
20260508035213 12 345 0.0 1.6 0.00 0.00 0.00 83 1030.6
20260508034710 12 345 0.0 1.6 0.00 0.00 0.00 84 1030.7
20260508034205 12 86 0.0 0.0 0.00 0.00 0.00 85 1030.8
20260508033706 12 86 0.0 1.6 0.00 0.00 0.00 85 1030.8
20260508033207 12 86 0.0 1.6 0.00 0.00 0.00 85 1030.8
20260508032708 12 300 0.0 1.6 0.00 0.00 0.00 85 1030.9
20260508032207 12 0 0.0 0.0 0.00 0.00 0.00 87 1030.9
20260508031743 12 0 0.0 1.6 0.00 0.00 0.00 87 1031.2
20260508031724 12 0 0.0 0.0 0.00 0.00 0.00 88 1031.0
20260508030707 12 236 0.0 1.6 0.00 0.00 0.00 85 1031.2
20260508030206 12 105 0.0 1.6 0.00 0.00 0.00 83 1031.2
20260508025948 12 336 0.0 1.6 0.00 0.00 0.00 82 1031.3
20260508025455 12 165 0.0 0.0 0.00 0.00 0.00 82 1031.4
20260508024705 12 165 0.0 0.0 0.00 0.00 0.00 82 1031.5
20260508024449 12 165 0.0 0.0 0.00 0.00 0.00 82 1031.6
20260508023706 12 322 0.0 1.6 0.00 0.00 0.00 81 1031.7
20260508023452 12 255 0.0 1.6 0.00 0.00 0.00 81 1031.6
20260508022708 12 153 0.0 1.6 0.00 0.00 0.00 80 1031.7
20260508022212 12 319 0.0 0.0 0.00 0.00 0.00 82 1031.7
20260508021707 12 319 0.0 0.0 0.00 0.00 0.00 81 1031.7
20260508021211 12 319 0.0 1.6 0.00 0.00 0.00 81 1031.7
20260508020707 12 319 0.0 1.6 0.00 0.00 0.00 80 1031.8
20260508020208 13 278 0.0 0.0 0.00 0.00 0.00 80 1031.8
20260508015707 13 278 0.0 1.6 0.00 0.00 0.00 79 1031.8
20260508015458 13 127 0.0 1.6 0.00 0.00 0.00 79 1031.9
20260508014706 13 86 0.0 1.6 0.00 0.00 0.00 80 1031.9
20260508014204 13 346 0.0 1.6 0.00 0.00 0.00 80 1032.0
20260508013707 13 259 0.0 1.6 0.00 0.00 0.00 79 1032.0
20260508013206 12 101 0.0 1.6 0.00 0.00 0.00 80 1032.0
20260508012706 12 308 0.0 1.6 0.00 0.00 0.00 80 1032.1
20260508012207 12 232 0.0 1.6 0.00 0.00 0.00 80 1032.1
20260508011706 12 117 1.6 3.2 0.00 0.00 0.00 81 1032.0
20260508011205 12 92 1.6 3.2 0.00 0.00 0.00 81 1032.0
20260508010707 12 0 0.0 3.2 0.00 0.00 0.00 80 1031.9
20260508010453 12 190 0.0 1.6 0.00 0.00 0.00 81 1031.9
20260508005919 12 126 0.0 3.2 0.00 0.00 0.00 83 1031.9
20260508005439 12 290 1.6 3.2 0.00 0.00 0.00 84 1031.9
20260508004919 11 105 0.0 3.2 0.00 0.00 0.00 83 1032.0
20260508004133 11 333 0.0 3.2 0.00 0.00 0.00 83 1032.1
20260508003921 11 299 0.0 1.6 0.00 0.00 0.00 83 1032.1
20260508003416 11 238 0.0 1.6 0.00 0.00 0.00 83 1032.2
20260508002639 11 323 0.0 1.6 0.00 0.00 0.00 84 1032.1
20260508002134 11 323 0.0 1.6 0.00 0.00 0.00 84 1032.0
20260508001636 11 156 0.0 1.6 0.00 0.00 0.00 84 1032.1
20260508001133 11 76 0.0 1.6 0.00 0.00 0.00 85 1032.1
20260508000633 11 236 0.0 0.0 0.00 0.00 0.00 85 1032.0
20260508000133 11 236 0.0 0.0 0.00 0.00 0.00 85 1032.0
20260507235635 11 236 0.0 0.0 0.00 0.00 0.00 85 1032.1
20260507235136 11 295 0.0 0.0 0.00 0.00 0.00 86 1032.1
20260507234632 11 295 0.0 0.0 0.00 0.00 0.00 86 1032.0
20260507234132 11 295 0.0 0.0 0.00 0.00 0.00 87 1032.0
20260507233709 11 236 0.0 1.6 0.00 0.00 0.00 87 1031.9
20260507233652 11 236 0.0 1.6 0.00 0.00 0.00 87 1032.0
20260507232633 11 232 0.0 0.0 0.00 0.00 0.00 87 1031.8
20260507232417 11 232 0.0 1.6 0.00 0.00 0.00 87 1031.9
20260507231634 11 244 0.0 1.6 0.00 0.00 0.00 87 1031.7
20260507231421 11 116 0.0 0.0 0.00 0.00 0.00 87 1031.8
20260507230635 10 116 0.0 1.6 0.00 0.00 0.00 88 1031.8
20260507230133 10 116 0.0 1.6 0.00 0.00 0.00 88 1031.6
20260507225634 10 134 0.0 1.6 0.00 0.00 0.00 88 1031.6
20260507225139 10 134 0.0 1.6 0.00 0.00 0.00 88 1031.5
20260507224634 10 327 0.0 0.0 0.00 0.00 0.00 88 1031.4
20260507224135 10 327 0.0 0.0 0.00 0.00 0.00 88 1031.4
20260507223640 10 327 0.0 0.0 0.00 0.00 0.00 89 1031.3
20260507223132 10 327 0.0 0.0 0.00 0.00 0.00 90 1031.3
20260507222634 10 327 0.0 0.0 0.00 0.00 0.00 90 1031.3
20260507222133 10 327 0.0 0.0 0.00 0.00 0.00 91 1031.2
20260507221633 9 327 0.0 0.0 0.00 0.00 0.00 91 1031.2
20260507221132 9 327 0.0 0.0 0.00 0.00 0.00 91 1031.3
20260507220638 9 327 0.0 0.0 0.00 0.00 0.00 91 1031.0
20260507220137 9 327 0.0 0.0 0.00 0.00 0.00 91 1031.0
20260507215641 9 327 0.0 0.0 0.00 0.00 0.00 91 1030.9
20260507215137 9 327 0.0 0.0 0.00 0.00 0.00 91 1030.9
20260507214634 9 327 0.0 0.0 0.00 0.00 0.00 91 1030.8